Location: Corralito
(10.2667°N, 66.9500°W)
Time: 18:45:36
(UTC+00:00)

Spot 4 Rocket - Pass Details

Date: 28 April 2024
Orbit: 772 x 777 km, 98.8° (Epoch: 22 May)

Event Time Altitude Azimuth Distance (km) Brightness Sun altitude
Rises 09:34:44 0° 23° (NNE) 3,242 7.9 -9.5°
Reaches altitude 10° 09:37:08 10° 29° (NNE) 2,315 7.2 -8.9°
Maximum altitude 09:42:01 46° 102° (ESE) 1,028 5.2 -7.7°
Drops below altitude 10° 09:46:53 10° 175° (S) 2,312 6.4 -6.6°
Sets 09:49:16 0° 180° (S) 3,239 7.1 -6.0°
